星链-11155 [DTC] (STARLINK-11155 [DTC] )

导读 | 星芒AI

STARLINK-11155 [DTC] 是 SpaceX Starlink 项目中的一颗低轨通信卫星,属于第 5 批组网卫星。该卫星于 2020 年 11 月发射,运行在约 550 公里的轨道高度,旨在为全球提供高速互联网服务。其搭载先进相控阵天线和激光通信系统,支持高速数据传输与星间通信,提升网络覆盖与稳定性。该卫星由 SpaceX 设计制造,是其构建全球宽带网络计划的重要组成部分。

基本信息
目录编号:
60046
目录名称:
STARLINK-11155
国际标识:
2024-112J
轨道中心:
EARTH
卫星名称:
星链-11155 [DTC]
卫星全名:
星链-11155 [DTC] (STARLINK-11155 [DTC] )
卫星状态:
在轨 (已飞行555 天)
发射日期:
2024-06-08 UTC
国别 :
美国 (US)
星等 :
--
轨道信息
数据来源 国际轨道数据
星历时间: 2025-12-15T06:50:40+0800
20小时前
查看轨道信息
半长轴: 6737.782km
偏心率: 0.0000796
轨道倾角: 53.159°
近地点辐角 93.295°
升交点赤经 323.873°
平近点角 266.816°
近地点: 359.11km
远地点: 360.184km
周期: 91.735分钟
每日圈数: 15.697386
详细信息
固有亮度:
5
最大亮度:
0.3
卫星平台:
Starlink v2.0 mini
覆盖范围:
全球
运营商:
太空探索技术公司
运营商所在国:
美国
制造商(研发单位):
太空探索技术公司
制造商所在国:
美国
使用方式:
暂无
卫星简介
星链(Starlink)计划是由太空探索技术公司(SpaceX)提出的一个巨型低轨卫星互联网星座项目,计划在2019年至2024年间在太空搭建由约1.2万颗卫星组成的“星链”网络,其中1584颗将部署在地球上空550千米处的近地轨道,并从2020年开始工作。该卫星仍在工作。
2D轨道图
3D轨道图
轨道高度分析图
轨道倾角分析图
轨道综合分析图
查看轨道综合分析图